When you browse on this site, cookies collect data to enhance your experience and personalize the content and advertising you see.
Visit our Privacy Policy to learn more. By continuing to use the site, you agree to this use of cookies and data.
  • In Hungary
  • List of Countries
  • For 7 days
  • Water Temperature
  • Weather Map
  • News
  • Weather Widgets
  • user-avatar
    Login

    Hourly Weather Kyzyltan

    Today, 15 December, Sunday

    Time Temperature Precipitation Wind Pressure Humidity
    00:00 -1°C° 0 mm 1 mps 704 mmHg 67%
    01:00 -1°C° 0 mm 1 mps 704 mmHg 64%
    02:00 -1°C° 0 mm 1 mps 704 mmHg 62%
    03:00 -2°C° 0 mm 1 mps 704 mmHg 60%
    04:00 -2°C° 0 mm 1 mps 704 mmHg 58%
    05:00 -4°C° 0 mm 2 mps 704 mmHg 55%
    06:00 -4°C° 0 mm 2 mps 704 mmHg 54%
    07:00 -4°C° 0 mm 2 mps 704 mmHg 53%
    08:00 -4°C° 0 mm 2 mps 704 mmHg 51%
    09:00 -1°C° 0 mm 1 mps 704 mmHg 48%
    10:00 +1°C° 0 mm 1 mps 705 mmHg 44%
    11:00 +2°C° 0 mm 1 mps 705 mmHg 40%
    12:00 +3°C° 0 mm 1 mps 705 mmHg 40%
    13:00 +4°C° 0 mm 1 mps 705 mmHg 40%
    14:00 +4°C° 0 mm 1 mps 704 mmHg 40%
    15:00 +3°C° 0 mm 1 mps 704 mmHg 46%
    16:00 +1°C° 0 mm 1 mps 704 mmHg 53%
    17:00 0°C° 0 mm 1 mps 704 mmHg 59%
    18:00 -2°C° 0 mm 2 mps 704 mmHg 56%
    19:00 -3°C° 0 mm 2 mps 704 mmHg 52%
    20:00 -3°C° 0 mm 2 mps 704 mmHg 48%
    21:00 -4°C° 0 mm 3 mps 704 mmHg 45%
    22:00 -4°C° 0 mm 3 mps 704 mmHg 42%
    23:00 -4°C° 0 mm 3 mps 704 mmHg 39%

    Tomorrow, 16 December, Monday

    Time Temperature Precipitation Wind Pressure Humidity
    00:00 -4°C° 0 mm 3 mps 703 mmHg 38%
    01:00 -4°C° 0 mm 3 mps 703 mmHg 36%
    02:00 -4°C° 0 mm 3 mps 703 mmHg 35%
    03:00 -4°C° 0 mm 3 mps 703 mmHg 34%
    04:00 -4°C° 0 mm 3 mps 703 mmHg 33%
    05:00 -4°C° 0 mm 3 mps 703 mmHg 32%
    06:00 -4°C° 0 mm 3 mps 703 mmHg 31%
    07:00 -4°C° 0 mm 3 mps 703 mmHg 31%
    08:00 -4°C° 0 mm 3 mps 703 mmHg 30%
    09:00 -1°C° 0 mm 3 mps 703 mmHg 29%
    10:00 +2°C° 0 mm 2 mps 704 mmHg 28%
    11:00 +4°C° 0 mm 2 mps 704 mmHg 28%
    12:00 +5°C° 0 mm 2 mps 704 mmHg 28%
    13:00 +5°C° 0 mm 2 mps 703 mmHg 29%
    14:00 +7°C° 0 mm 1 mps 703 mmHg 29%
    15:00 +4°C° 0 mm 2 mps 703 mmHg 33%
    16:00 +3°C° 0 mm 2 mps 703 mmHg 36%
    17:00 +1°C° 0 mm 2 mps 702 mmHg 40%
    18:00 +1°C° 0 mm 2 mps 702 mmHg 37%
    19:00 -1°C° 0 mm 3 mps 702 mmHg 34%
    20:00 -1°C° 0 mm 3 mps 702 mmHg 32%
    21:00 -1°C° 0 mm 3 mps 702 mmHg 30%
    22:00 -1°C° 0 mm 3 mps 702 mmHg 29%
    23:00 -1°C° 0 mm 3 mps 702 mmHg 28%

    Day after tomorrow, 17 December, Tuesday

    Time Temperature Precipitation Wind Pressure Humidity
    00:00 -1°C° 0 mm 3 mps 702 mmHg 28%
    01:00 -1°C° 0 mm 3 mps 702 mmHg 27%
    02:00 -1°C° 0 mm 3 mps 702 mmHg 27%
    03:00 -1°C° 0 mm 3 mps 702 mmHg 26%
    04:00 -1°C° 0 mm 3 mps 702 mmHg 26%
    05:00 -1°C° 0 mm 3 mps 702 mmHg 26%
    06:00 0°C° 0 mm 3 mps 702 mmHg 26%
    07:00 0°C° 0 mm 3 mps 702 mmHg 27%
    08:00 0°C° 0 mm 3 mps 702 mmHg 27%
    09:00 +2°C° 0 mm 3 mps 703 mmHg 27%
    10:00 +5°C° 0 mm 2 mps 703 mmHg 27%
    11:00 +7°C° 0 mm 2 mps 703 mmHg 27%
    12:00 +8°C° 0 mm 2 mps 703 mmHg 29%
    13:00 +9°C° 0 mm 2 mps 703 mmHg 30%
    14:00 +11°C° 0 mm 1 mps 702 mmHg 32%
    15:00 +8°C° 0 mm 2 mps 702 mmHg 34%
    16:00 +7°C° 0 mm 2 mps 702 mmHg 36%
    17:00 +5°C° 0 mm 2 mps 702 mmHg 38%
    18:00 +4°C° 0 mm 3 mps 701 mmHg 40%
    19:00 +4°C° 0 mm 3 mps 701 mmHg 42%
    20:00 +3°C° 0 mm 4 mps 701 mmHg 44%
    21:00 +3°C° 0 mm 4 mps 701 mmHg 45%
    22:00 +3°C° 0 mm 4 mps 701 mmHg 46%
    23:00 +3°C° 0 mm 4 mps 701 mmHg 48%

    18 December, Wednesday

    Time Temperature Precipitation Wind Pressure Humidity
    00:00 +3°C° 0 mm 4 mps 700 mmHg 48%
    01:00 +4°C° 0 mm 3 mps 700 mmHg 48%
    02:00 +4°C° 0 mm 3 mps 700 mmHg 48%
    03:00 +4°C° 0 mm 3 mps 700 mmHg 49%
    04:00 +5°C° 0 mm 2 mps 700 mmHg 50%
    05:00 +5°C° 0 mm 2 mps 700 mmHg 51%
    06:00 +5°C° 0.1 mm 2 mps 700 mmHg 57%
    07:00 +4°C° 0.1 mm 3 mps 700 mmHg 63%
    08:00 +4°C° 0.1 mm 4 mps 701 mmHg 70%
    09:00 +4°C° 0.2 mm 4 mps 701 mmHg 70%
    10:00 +5°C° 0.2 mm 4 mps 701 mmHg 69%
    11:00 +7°C° 0.2 mm 3 mps 702 mmHg 69%
    12:00 +5°C° 0.6 mm 3 mps 702 mmHg 71%
    13:00 +4°C° 0.6 mm 3 mps 702 mmHg 72%
    14:00 +3°C° 0.6 mm 3 mps 702 mmHg 73%
    15:00 +2°C° 1.4 mm 3 mps 702 mmHg 81%
    16:00 +2°C° 1.4 mm 3 mps 702 mmHg 88%
    17:00 +2°C° 1.4 mm 2 mps 702 mmHg 95%
    18:00 +2°C° 0.2 mm 2 mps 703 mmHg 95%
    19:00 +2°C° 0.2 mm 2 mps 704 mmHg 94%
    20:00 +2°C° 0.2 mm 2 mps 704 mmHg 93%
    21:00 +2°C° 0 mm 2 mps 704 mmHg 90%
    22:00 +2°C° 0 mm 2 mps 704 mmHg 87%
    23:00 +1°C° 0 mm 2 mps 704 mmHg 84%

    19 December, Thursday

    Time Temperature Precipitation Wind Pressure Humidity
    00:00 +1°C° 0 mm 2 mps 704 mmHg 82%
    01:00 +1°C° 0 mm 2 mps 704 mmHg 80%
    02:00 +1°C° 0 mm 2 mps 704 mmHg 78%
    03:00 +1°C° 0 mm 2 mps 704 mmHg 76%
    04:00 +1°C° 0 mm 2 mps 704 mmHg 74%
    05:00 +1°C° 0 mm 2 mps 704 mmHg 72%
    06:00 +1°C° 0 mm 2 mps 704 mmHg 71%
    07:00 +1°C° 0 mm 2 mps 703 mmHg 71%
    08:00 +1°C° 0 mm 2 mps 703 mmHg 70%
    09:00 +2°C° 0 mm 2 mps 703 mmHg 69%
    10:00 +3°C° 0 mm 2 mps 703 mmHg 67%
    11:00 +5°C° 0 mm 2 mps 703 mmHg 66%
    12:00 +5°C° 0 mm 2 mps 702 mmHg 66%
    13:00 +6°C° 0 mm 2 mps 702 mmHg 67%
    14:00 +6°C° 0 mm 2 mps 701 mmHg 68%
    15:00 +5°C° 0 mm 2 mps 701 mmHg 71%
    16:00 +5°C° 0 mm 2 mps 701 mmHg 74%
    17:00 +5°C° 0 mm 1 mps 701 mmHg 78%
    18:00 +5°C° 0 mm 1 mps 701 mmHg 78%
    19:00 +5°C° 0 mm 1 mps 701 mmHg 79%
    20:00 +5°C° 0 mm 1 mps 701 mmHg 79%
    21:00 +5°C° 0.1 mm 1 mps 701 mmHg 81%
    22:00 +5°C° 0.1 mm 1 mps 701 mmHg 82%
    23:00 +4°C° 0.1 mm 1 mps 701 mmHg 84%

    20 December, Friday

    Time Temperature Precipitation Wind Pressure Humidity
    00:00 +4°C° 0.3 mm 1 mps 701 mmHg 84%
    01:00 +4°C° 0.3 mm 1 mps 701 mmHg 84%
    02:00 +4°C° 0.3 mm 1 mps 701 mmHg 85%
    03:00 +3°C° 0.3 mm 1 mps 701 mmHg 87%
    04:00 +3°C° 0.3 mm 1 mps 701 mmHg 89%
    05:00 +2°C° 0.3 mm 1 mps 701 mmHg 91%
    06:00 +2°C° 0.4 mm 1 mps 701 mmHg 93%
    07:00 +2°C° 0.4 mm 1 mps 702 mmHg 94%
    08:00 +2°C° 0.4 mm 1 mps 702 mmHg 96%
    09:00 +2°C° 0.2 mm 1 mps 702 mmHg 95%
    10:00 +3°C° 0.2 mm 1 mps 703 mmHg 95%
    11:00 +3°C° 0.2 mm 1 mps 703 mmHg 95%
    12:00 +4°C° 0 mm 1 mps 703 mmHg 89%
    13:00 +4°C° 0 mm 1 mps 703 mmHg 83%
    14:00 +5°C° 0 mm 1 mps 703 mmHg 77%
    15:00 +4°C° 0 mm 1 mps 703 mmHg 77%
    16:00 +4°C° 0 mm 1 mps 703 mmHg 78%
    17:00 +3°C° 0 mm 1 mps 703 mmHg 78%
    18:00 +3°C° 0 mm 1 mps 703 mmHg 76%
    19:00 +1°C° 0 mm 2 mps 703 mmHg 73%
    20:00 +1°C° 0 mm 2 mps 703 mmHg 71%
    21:00 +1°C° 0 mm 2 mps 702 mmHg 67%
    22:00 0°C° 0 mm 3 mps 702 mmHg 64%
    23:00 0°C° 0 mm 3 mps 702 mmHg 60%
    Show more